Stations météo

réclame
Mon MeteoGroup
Santon Downham, Grande-Bretagne (99118): Température de l'air & dewpoint: 31.03.2020 14:00:00 - 06.04.2020 14:00:00 (BST)Santon Downham, Grande-Bretagne (99118): Température de l'air -20cm & Température de l'air -100cm: 31.03.2020 14:00:00 - 06.04.2020 14:00:00 (BST)Santon Downham, Grande-Bretagne (99118): Quantités de précipitations: 31.03.2020 14:00:00 - 06.04.2020 14:00:00 (BST)
Date & Time tt [°C] td [°C] tt -20cm [°C] tt -100cm [°C] rr [mm]
06.04.2020 14:00:00 16,3 5,5 - - 0,0
06.04.2020 13:00:00 16,6 7,5 - - 0,0
06.04.2020 12:00:00 13,5 8,9 - - 0,0
06.04.2020 11:00:00 12,2 8,0 - - 0,0
06.04.2020 10:00:00 13,4 9,2 8,2 8,2 0,0
06.04.2020 09:00:00 13,6 8,1 - - 0,0
06.04.2020 08:00:00 13,6 7,2 - - 0,0
06.04.2020 07:00:00 12,4 6,4 - - 0,0
06.04.2020 06:00:00 11,7 6,0 - - 0,0
06.04.2020 05:00:00 10,0 4,6 - - 0,0
06.04.2020 04:00:00 9,4 4,0 - - 0,0
06.04.2020 03:00:00 9,2 4,0 - - 0,0
06.04.2020 02:00:00 8,4 3,9 - - 0,0
06.04.2020 01:00:00 11,2 4,3 - - 0,0
06.04.2020 00:00:00 7,9 4,4 - - 0,0
05.04.2020 23:00:00 6,1 3,9 - - 0,0
05.04.2020 22:00:00 6,9 4,0 - - 0,0
05.04.2020 21:00:00 9,2 3,7 - - 0,0
05.04.2020 20:00:00 14,4 3,4 - - 0,0
05.04.2020 19:00:00 16,8 3,7 - - 0,0
05.04.2020 18:00:00 17,9 4,5 - - 0,0
05.04.2020 17:00:00 18,7 3,7 - - 0,0
05.04.2020 16:00:00 18,4 3,3 - - 0,0
05.04.2020 15:00:00 18,9 2,6 - - 0,0
05.04.2020 14:00:00 18,7 2,9 - - 0,0
05.04.2020 13:00:00 18,4 2,9 - - 0,0
05.04.2020 12:00:00 17,3 3,2 - - 0,0
05.04.2020 11:00:00 15,9 4,0 - - 0,0
05.04.2020 10:00:00 14,0 4,8 7,7 8,2 0,0
05.04.2020 09:00:00 11,1 4,6 - - 0,0
05.04.2020 08:00:00 1,9 1,8 - - 0,0
05.04.2020 07:00:00 -1,3 -1,6 - - 0,0
05.04.2020 06:00:00 -1,0 -1,3 - - 0,0
05.04.2020 05:00:00 -0,5 -0,8 - - 0,0
05.04.2020 04:00:00 -0,3 -0,7 - - 0,0
05.04.2020 03:00:00 0,3 -0,3 - - 0,0
05.04.2020 02:00:00 0,9 0,3 - - 0,0
05.04.2020 01:00:00 1,3 0,6 - - 0,0
05.04.2020 00:00:00 1,8 0,7 - - 0,0
04.04.2020 23:00:00 3,3 1,5 - - 0,0
04.04.2020 22:00:00 6,0 2,0 - - 0,0
04.04.2020 21:00:00 9,1 2,8 - - 0,0
04.04.2020 20:00:00 10,6 2,3 - - 0,0
04.04.2020 19:00:00 12,8 2,0 - - 0,0
04.04.2020 18:00:00 13,8 2,5 - - 0,0
04.04.2020 17:00:00 14,6 3,7 - - 0,0
04.04.2020 16:00:00 15,0 2,7 - - 0,0
04.04.2020 15:00:00 16,4 2,3 - - 0,0
04.04.2020 14:00:00 15,9 2,1 - - 0,0
04.04.2020 13:00:00 14,9 3,4 - - 0,0
04.04.2020 12:00:00 14,3 4,0 - - 0,0
04.04.2020 11:00:00 14,1 4,8 - - 0,0
04.04.2020 10:00:00 12,3 4,0 7,4 8,0 0,0
04.04.2020 09:00:00 8,1 5,9 - - 0,0
04.04.2020 08:00:00 1,0 0,8 - - 0,0
04.04.2020 07:00:00 -1,9 -2,4 - - 0,0
04.04.2020 06:00:00 -1,7 -2,3 - - 0,0
04.04.2020 05:00:00 -0,7 -1,3 - - 0,0
04.04.2020 04:00:00 0,1 -0,6 - - 0,0
04.04.2020 03:00:00 1,0 -0,1 - - 0,0
04.04.2020 02:00:00 2,8 1,1 - - 0,0
04.04.2020 01:00:00 5,2 2,0 - - 0,0
04.04.2020 00:00:00 8,1 3,7 - - 0,0
03.04.2020 23:00:00 4,5 2,9 - - 0,0
03.04.2020 22:00:00 3,4 1,6 - - 0,0
03.04.2020 21:00:00 3,0 0,5 - - 0,0
03.04.2020 20:00:00 6,4 1,1 - - 0,0
03.04.2020 19:00:00 10,4 1,4 - - 0,0
03.04.2020 18:00:00 11,4 0,5 - - 0,0
03.04.2020 17:00:00 11,0 0,6 - - 0,0
03.04.2020 16:00:00 10,9 0,7 - - 0,0
03.04.2020 15:00:00 11,0 -0,6 - - 0,0
03.04.2020 14:00:00 11,2 0,7 - - 0,0
03.04.2020 13:00:00 9,4 -0,3 - - 0,0
03.04.2020 12:00:00 10,1 -1,2 - - 0,0
03.04.2020 11:00:00 9,4 1,4 - - 0,0
03.04.2020 10:00:00 8,0 1,3 7,2 8,0 0,0
03.04.2020 09:00:00 6,4 2,4 - - 0,0
03.04.2020 08:00:00 3,3 2,6 - - 0,0
03.04.2020 07:00:00 1,5 0,9 - - 0,0
03.04.2020 06:00:00 0,4 -0,1 - - 0,0
03.04.2020 05:00:00 -0,9 -1,8 - - 0,0
03.04.2020 04:00:00 0,3 -0,9 - - 0,0
03.04.2020 03:00:00 1,4 -0,5 - - 0,0
03.04.2020 02:00:00 3,9 0,9 - - 0,0
03.04.2020 01:00:00 6,2 0,6 - - 0,0
03.04.2020 00:00:00 7,3 0,6 - - 0,0
02.04.2020 23:00:00 9,3 1,1 - - 0,0
02.04.2020 22:00:00 9,8 1,4 - - 0,0
02.04.2020 21:00:00 10,4 1,5 - - 0,0
02.04.2020 20:00:00 11,2 2,0 - - 0,0
02.04.2020 19:00:00 11,8 2,4 - - 0,0
02.04.2020 18:00:00 12,5 3,9 - - 0,0
02.04.2020 17:00:00 12,6 5,6 - - 0,0
02.04.2020 16:00:00 11,9 5,7 - - 0,0
02.04.2020 15:00:00 11,2 4,6 - - 0,0
02.04.2020 14:00:00 12,3 4,3 - - 0,0
02.04.2020 13:00:00 11,8 3,9 - - 0,0
02.04.2020 12:00:00 12,0 4,0 - - 0,0
02.04.2020 11:00:00 10,7 2,4 - - 0,0
02.04.2020 10:00:00 8,9 5,1 6,7 8,0 0,0
02.04.2020 09:00:00 6,3 4,4 - - 0,0
02.04.2020 08:00:00 4,1 3,9 - - 0,0
02.04.2020 07:00:00 0,6 0,3 - - 0,0
02.04.2020 06:00:00 -0,9 -1,2 - - 0,0
02.04.2020 05:00:00 -1,6 -2,1 - - 0,0
02.04.2020 04:00:00 -1,3 -2,0 - - 0,0
02.04.2020 03:00:00 -0,5 -1,4 - - 0,0
02.04.2020 02:00:00 1,2 -0,1 - - 0,0
02.04.2020 01:00:00 3,1 1,7 - - 0,0
02.04.2020 00:00:00 3,4 1,5 - - 0,0
01.04.2020 23:00:00 4,2 2,0 - - 0,0
01.04.2020 22:00:00 4,6 2,2 - - 0,0
01.04.2020 21:00:00 5,2 2,3 - - 0,0
01.04.2020 20:00:00 6,5 1,7 - - 0,0
01.04.2020 19:00:00 7,8 1,8 - - 0,0
01.04.2020 18:00:00 8,0 1,7 - - 0,0
01.04.2020 17:00:00 8,3 0,8 - - 0,0
01.04.2020 16:00:00 8,5 2,1 - - 0,0
01.04.2020 15:00:00 8,9 1,6 - - 0,0
01.04.2020 14:00:00 8,8 2,7 - - 0,0
01.04.2020 13:00:00 7,3 1,5 - - 0,0
01.04.2020 12:00:00 6,2 1,2 - - 0,0
01.04.2020 11:00:00 3,8 1,5 - - 0,0
01.04.2020 10:00:00 1,8 1,4 6,7 8,0 0,0
01.04.2020 09:00:00 0,0 -0,4 - - 0,0
01.04.2020 08:00:00 -0,9 -1,3 - - 0,0
01.04.2020 07:00:00 -1,9 -2,4 - - 0,0
01.04.2020 06:00:00 -2,9 -3,4 - - 0,0
01.04.2020 05:00:00 -3,8 -4,4 - - 0,0
01.04.2020 04:00:00 -4,1 -4,8 - - 0,0
01.04.2020 03:00:00 -3,6 -4,3 - - 0,0
01.04.2020 02:00:00 -3,3 -4,0 - - 0,0
01.04.2020 01:00:00 -2,9 -3,8 - - 0,0
01.04.2020 00:00:00 -2,5 -3,6 - - 0,0
31.03.2020 23:00:00 -1,7 -3,3 - - 0,0
31.03.2020 22:00:00 -0,4 -2,5 - - 0,0
31.03.2020 21:00:00 1,0 -2,6 - - 0,0
31.03.2020 20:00:00 4,0 -2,4 - - 0,0
31.03.2020 19:00:00 7,3 -2,9 - - 0,0
31.03.2020 18:00:00 9,0 -3,4 - - 0,0
31.03.2020 17:00:00 9,9 -2,5 - - 0,0
31.03.2020 16:00:00 9,9 -1,6 - - 0,0
31.03.2020 15:00:00 10,4 -1,5 - - 0,0
31.03.2020 14:00:00 10,0 0,0 - - 0,0

tt = Température de l'air
td = dewpoint
tt -20cm = Température de l'air -20cm
tt -100cm = Température de l'air -100cm
rr = Quantités de précipitations

stations d'obs. à proximité